| time (UTC) | temp C | wind direction | speed KPH | gust KPH | rain 1hr cm | rain 24hr cm | rain mn cm | humidity % | barometer mb |
| 20260510190014 | 28 | 184 | 0.0 | 0.0 | 0.00 | 0.00 | 0.03 | 65 | 1011.9 |
| 20260510184510 | 28 | 188 | 0.0 | 0.0 | 0.00 | 0.00 | 0.03 | 66 | 1012.1 |
| 20260510183008 | 28 | 200 | 0.0 | 0.0 | 0.00 | 0.00 | 0.03 | 65 | 1012.3 |
| 20260510181507 | 27 | 164 | 0.0 | 0.0 | 0.00 | 0.00 | 0.03 | 66 | 1012.5 |
| 20260510180006 | 27 | 143 | 0.0 | 0.0 | 0.00 | 0.00 | 0.03 | 66 | 1012.6 |
| 20260510174504 | 27 | 37 | 0.0 | 0.0 | 0.00 | 0.00 | 0.03 | 66 | 1012.8 |
| 20260510173003 | 27 | 250 | 0.0 | 0.0 | 0.00 | 0.00 | 0.03 | 65 | 1012.9 |
| 20260510171502 | 27 | 191 | 0.0 | 0.0 | 0.00 | 0.00 | 0.03 | 66 | 1013.0 |
| 20260510164603 | 26 | 69 | 0.0 | 0.0 | 0.00 | 0.00 | 0.03 | 66 | 1013.3 |
| 20260510163108 | 26 | 1 | 0.0 | 0.0 | 0.00 | 0.00 | 0.03 | 67 | 1013.1 |
| 20260510161554 | 25 | 109 | 0.0 | 0.0 | 0.00 | 0.00 | 0.03 | 65 | 1013.0 |
| 20260510160052 | 25 | 37 | 0.0 | 0.0 | 0.00 | 0.00 | 0.03 | 66 | 1013.0 |
| 20260510154551 | 25 | 23 | 0.0 | 0.0 | 0.00 | 0.00 | 0.03 | 65 | 1013.0 |
| 20260510153051 | 24 | 27 | 0.0 | 0.0 | 0.00 | 0.00 | 0.03 | 62 | 1013.1 |
| 20260510151544 | 23 | 14 | 0.0 | 0.0 | 0.00 | 0.00 | 0.03 | 58 | 1013.3 |
| 20260510150043 | 23 | 6 | 0.0 | 0.0 | 0.00 | 0.00 | 0.03 | 57 | 1013.4 |
| 20260510144538 | 22 | 44 | 0.0 | 0.0 | 0.00 | 0.00 | 0.03 | 36 | 1013.5 |
| 20260510143030 | 21 | 18 | 0.0 | 0.0 | 0.00 | 0.00 | 0.03 | 38 | 1013.5 |
| 20260510141528 | 20 | 53 | 0.0 | 0.0 | 0.00 | 0.00 | 0.03 | 38 | 1013.4 |
| 20260510140026 | 20 | 2 | 0.0 | 0.0 | 0.00 | 0.00 | 0.03 | 39 | 1013.2 |
| 20260510134526 | 19 | 18 | 0.0 | 0.0 | 0.00 | 0.00 | 0.03 | 39 | 1013.1 |
| 20260510133019 | 18 | 55 | 0.0 | 0.0 | 0.00 | 0.00 | 0.03 | 39 | 1013.0 |
| 20260510131515 | 18 | 1 | 0.0 | 0.0 | 0.00 | 0.00 | 0.03 | 39 | 1013.0 |
| 20260510130014 | 18 | 53 | 0.0 | 0.0 | 0.00 | 0.00 | 0.03 | 39 | 1012.6 |
| 20260510124511 | 17 | 32 | 0.0 | 0.0 | 0.00 | 0.00 | 0.03 | 39 | 1012.6 |
| 20260510123011 | 17 | 32 | 0.0 | 0.0 | 0.00 | 0.00 | 0.03 | 39 | 1012.5 |
| 20260510121512 | 17 | 32 | 0.0 | 0.0 | 0.00 | 0.00 | 0.03 | 39 | 1012.0 |
| 20260510120012 | 17 | 1 | 0.0 | 0.0 | 0.00 | 0.00 | 0.00 | 39 | 1011.7 |
| 20260510114510 | 17 | 69 | 0.0 | 0.0 | 0.00 | 0.00 | 0.00 | 39 | 1011.5 |
| 20260510113007 | 17 | 72 | 0.0 | 0.0 | 0.00 | 0.00 | 0.00 | 39 | 1011.0 |
| 20260510111508 | 17 | 82 | 0.0 | 0.0 | 0.00 | 0.00 | 0.00 | 39 | 1010.9 |
| 20260510110009 | 17 | 123 | 0.0 | 0.0 | 0.00 | 0.00 | 0.00 | 39 | 1010.6 |
| 20260510104505 | 17 | 82 | 0.0 | 0.0 | 0.00 | 0.00 | 0.00 | 39 | 1010.5 |
| 20260510103005 | 17 | 355 | 0.0 | 0.0 | 0.00 | 0.00 | 0.00 | 39 | 1010.3 |
| 20260510101505 | 17 | 355 | 0.0 | 0.0 | 0.00 | 0.00 | 0.00 | 39 | 1010.0 |
| 20260510100003 | 17 | 355 | 0.0 | 0.0 | 0.00 | 0.00 | 0.00 | 39 | 1009.9 |
| 20260510094501 | 17 | 355 | 0.0 | 0.0 | 0.00 | 0.00 | 0.00 | 39 | 1009.9 |
| 20260510093100 | 17 | 355 | 0.0 | 0.0 | 0.00 | 0.00 | 0.00 | 39 | 1009.9 |
| 20260510091601 | 17 | 355 | 0.0 | 0.0 | 0.00 | 0.00 | 0.00 | 39 | 1009.9 |
| 20260510090059 | 17 | 355 | 0.0 | 0.0 | 0.00 | 0.00 | 0.00 | 38 | 1009.8 |
| 20260510084610 | 17 | 26 | 0.0 | 0.0 | 0.00 | 0.00 | 0.00 | 38 | 1009.4 |
| 20260510083056 | 17 | 26 | 0.0 | 0.0 | 0.00 | 0.00 | 0.00 | 38 | 1009.3 |
| 20260510081559 | 17 | 26 | 0.0 | 0.0 | 0.00 | 0.00 | 0.00 | 38 | 1009.3 |
| 20260510080103 | 17 | 26 | 0.0 | 0.0 | 0.00 | 0.00 | 0.00 | 39 | 1009.3 |
| 20260510074555 | 18 | 26 | 0.0 | 0.0 | 0.00 | 0.00 | 0.00 | 38 | 1009.3 |
| 20260510073057 | 18 | 26 | 0.0 | 0.0 | 0.00 | 0.00 | 0.00 | 38 | 1009.1 |
| 20260510071551 | 18 | 26 | 0.0 | 0.0 | 0.00 | 0.00 | 0.00 | 38 | 1009.2 |
| 20260510064547 | 18 | 26 | 0.0 | 0.0 | 0.00 | 0.00 | 0.00 | 38 | 1009.4 |
| 20260510063041 | 18 | 70 | 0.0 | 0.0 | 0.00 | 0.00 | 0.00 | 38 | 1009.4 |
| 20260510061538 | 18 | 78 | 0.0 | 0.0 | 0.00 | 0.00 | 0.00 | 38 | 1009.6 |
| 20260510060040 | 18 | 78 | 0.0 | 0.0 | 0.00 | 0.00 | 0.00 | 38 | 1009.4 |
| 20260510054527 | 18 | 78 | 0.0 | 0.0 | 0.00 | 0.00 | 0.00 | 38 | 1009.8 |
| 20260510053023 | 18 | 78 | 0.0 | 0.0 | 0.00 | 0.00 | 0.00 | 38 | 1009.6 |
| 20260510051519 | 18 | 78 | 0.0 | 0.0 | 0.00 | 0.00 | 0.00 | 38 | 1009.4 |
| 20260510050015 | 18 | 96 | 0.0 | 0.0 | 0.00 | 0.00 | 0.00 | 38 | 1009.5 |
| 20260510044510 | 18 | 25 | 0.0 | 0.0 | 0.00 | 0.00 | 0.00 | 38 | 1009.6 |
| 20260510043007 | 18 | 24 | 0.0 | 0.0 | 0.00 | 0.00 | 0.00 | 38 | 1009.9 |
| 20260510041502 | 18 | 24 | 0.0 | 0.0 | 0.00 | 0.00 | 4.29 | 38 | 1010.0 |
| 20260510040002 | 18 | 24 | 0.0 | 0.0 | 0.00 | 0.00 | 4.29 | 38 | 1010.0 |
| 20260510034501 | 18 | 24 | 0.0 | 0.0 | 0.00 | 0.00 | 4.29 | 38 | 1010.4 |
| 20260510033000 | 18 | 63 | 0.0 | 0.0 | 0.00 | 0.00 | 4.29 | 38 | 1010.4 |
| 20260510031501 | 18 | 6 | 0.0 | 0.0 | 0.00 | 0.00 | 4.29 | 38 | 1010.5 |
| 20260510024600 | 18 | 307 | 0.0 | 0.0 | 0.00 | 0.00 | 4.29 | 38 | 1009.9 |
| 20260510023059 | 18 | 333 | 0.0 | 0.0 | 0.00 | 0.00 | 4.29 | 38 | 1008.9 |
| 20260510021646 | 18 | 52 | 0.0 | 0.0 | 0.00 | 0.00 | 4.29 | 38 | 1008.9 |
| 20260510014600 | 18 | 45 | 0.0 | 0.0 | 0.00 | 0.00 | 4.29 | 38 | 1009.3 |
| 20260510013111 | 18 | 45 | 0.0 | 0.0 | 0.00 | 0.00 | 4.29 | 38 | 1008.9 |
| 20260510011557 | 18 | 45 | 0.0 | 0.0 | 0.00 | 0.00 | 4.29 | 38 | 1008.9 |
| 20260510010100 | 19 | 45 | 0.0 | 0.0 | 0.00 | 0.00 | 4.29 | 38 | 1009.1 |
| 20260510004555 | 19 | 281 | 0.0 | 0.0 | 0.00 | 0.00 | 4.29 | 38 | 1008.9 |
| 20260510003057 | 19 | 281 | 0.0 | 0.0 | 0.00 | 0.00 | 4.29 | 38 | 1009.0 |
| 20260510001554 | 19 | 255 | 0.0 | 0.0 | 0.00 | 0.00 | 4.27 | 38 | 1009.0 |
| 20260510000054 | 19 | 317 | 0.0 | 0.0 | 0.00 | 0.00 | 4.27 | 38 | 1009.1 |
| 20260509234553 | 19 | 318 | 0.0 | 0.0 | 0.00 | 0.00 | 4.24 | 38 | 1008.9 |
| 20260509233053 | 19 | 318 | 0.0 | 0.0 | 0.00 | 0.00 | 4.24 | 38 | 1008.6 |
| 20260509231553 | 19 | 318 | 0.0 | 0.0 | 0.00 | 0.00 | 4.24 | 38 | 1008.3 |
| 20260509230053 | 19 | 275 | 0.0 | 0.0 | 0.00 | 0.00 | 4.22 | 38 | 1008.8 |
| 20260509224551 | 19 | 204 | 0.0 | 0.0 | 0.00 | 0.00 | 4.19 | 38 | 1009.0 |
| 20260509223053 | 19 | 200 | 0.0 | 0.0 | 0.00 | 0.00 | 4.19 | 38 | 1008.0 |
| 20260509221550 | 19 | 200 | 0.0 | 0.0 | 0.00 | 0.00 | 4.19 | 38 | 1008.3 |
| 20260509220051 | 19 | 254 | 0.0 | 0.0 | 0.00 | 0.00 | 4.19 | 38 | 1008.1 |
| 20260509214549 | 19 | 167 | 0.0 | 0.0 | 0.00 | 0.00 | 4.19 | 38 | 1006.8 |
| 20260509213103 | 19 | 101 | 0.0 | 0.0 | 0.00 | 0.00 | 4.17 | 38 | 1007.3 |
| 20260509211552 | 20 | 184 | 0.0 | 0.0 | 0.00 | 0.00 | 4.14 | 38 | 1008.3 |
| 20260509210050 | 20 | 254 | 0.0 | 0.0 | 0.00 | 0.00 | 4.11 | 38 | 1007.7 |
| 20260509204547 | 20 | 210 | 0.0 | 0.0 | 0.00 | 0.00 | 4.06 | 38 | 1007.9 |
| 20260509203046 | 20 | 202 | 0.0 | 0.0 | 0.00 | 0.00 | 4.01 | 38 | 1008.1 |
| 20260509201546 | 20 | 205 | 0.0 | 0.0 | 0.00 | 0.00 | 3.96 | 38 | 1008.3 |
| 20260509200052 | 20 | 110 | 0.0 | 0.0 | 0.00 | 0.00 | 3.91 | 38 | 1008.4 |
| 20260509194554 | 19 | 156 | 0.0 | 0.0 | 0.00 | 0.00 | 3.84 | 38 | 1008.5 |
| 20260509193046 | 19 | 288 | 0.0 | 0.0 | 0.00 | 0.00 | 3.81 | 38 | 1007.6 |
| 20260509191552 | 19 | 288 | 0.0 | 0.0 | 0.00 | 0.00 | 3.78 | 38 | 1007.4 |